Вернуться в каталог

FENGYUN 2C DEB

LostMEO
NORAD 40000·DEBRIS·🇨🇳 China

Запущен Oct 19, 2004 с Xichang Satellite Launch Center

Loading…

Ближайшие Пролёты (ближайшие 24 часа)

TLE

УстаревшееSource: Space-Track

Эпоха: Mar 21, 2026, 10:29 UTC

1 40000U 04042D   26080.43694546  .00000072  00000-0  00000-0 0  9990
2 40000  12.6402  20.3576 0198751  71.1279 290.9952  1.00297433 11706

Отслеживайте FENGYUN 2C DEB в реальном времени с AllMySat

Download on the App Store